Bellingham, Washington, United States (98225)
Lat: 48.76N, Lon: 122.49W
Wx Zone: WAZ503
Local Info
Past Weather Observations for Wednesday, October 15, 2014

NOTE: This archive is for the closest National Weather Service station to Bellingham. Information may differ from the station used for current weather conditions.

Click here for Long-term Archive

Time Weather Temperature Dewpoint Humidity Pressure Winds Precip Visibility
23:53
Overcast
54°F / 12°C 46°F / 8°C 77% 29.98 in
(1015 mb)
SSE 8.1 mph
(SSE 13 kph)
- 10SM
22:53
Mostly Cloudy
54°F / 12°C 48°F / 9°C 82% 29.95 in
(1014 mb)
SE 5.8 mph
(SE 9 kph)
- 10SM
21:53
Overcast
55°F / 13°C 50°F / 10°C 82% 29.95 in
(1014 mb)
SSE 8.1 mph
(SSE 13 kph)
0.01 in
(0.25 mm)
10SM
20:53
Overcast
55°F / 13°C 52°F / 11°C 88% 29.92 in
(1013 mb)
SSE 11.5 mph
(SSE 19 kph)
- 10SM
19:53
Mostly Cloudy
55°F / 13°C 50°F / 10°C 82% 29.89 in
(1012 mb)
S 4.6 mph
(S 7 kph)
- 10SM
18:53
Overcast
55°F / 13°C 50°F / 10°C 82% 29.86 in
(1011 mb)
S 5.8 mph
(S 9 kph)
- 10SM
17:53
Overcast
55°F / 13°C 52°F / 11°C 88% 29.83 in
(1010 mb)
SSE 4.6 mph
(SSE 7 kph)
0.00 in
(0.00 mm)
10SM
16:53
Overcast
55°F / 13°C 50°F / 10°C 82% 29.8 in
(1009 mb)
S 9.2 mph
(S 15 kph)
- 10SM
15:53
Overcast
55°F / 13°C 52°F / 11°C 88% 29.77 in
(1008 mb)
SSE 13.8 mph
(SSE 22 kph)
- 10SM
14:53
Overcast
55°F / 13°C 52°F / 11°C 88% 29.74 in
(1007 mb)
S 12.7 mph
(S 20 kph)
0.02 in
(0.51 mm)
10SM
14:50
Overcast
55°F / 13°C 52°F / 11°C 88% 29.74 in
(1007 mb)
SSE 13.8 mph
(SSE 22 kph)
0.02 in
(0.51 mm)
10SM
13:53
Overcast
Light Rain
55°F / 13°C 52°F / 11°C 88% 29.68 in
(1005 mb)
S 12.7 mph
(S 20 kph)
0.00 in
(0.00 mm)
8SM
12:53
Overcast
Light Rain
55°F / 13°C 52°F / 11°C 88% 29.65 in
(1004 mb)
SSE 10.4 mph
(SSE 17 kph)
0.02 in
(0.51 mm)
10SM
12:17
Overcast
Light Rain
55°F / 13°C 52°F / 11°C 88% 29.62 in
(1003 mb)
SSE 11.5 mph
(SSE 19 kph)
0.00 in
(0.00 mm)
10SM
11:53
Overcast
57°F / 14°C 52°F / 11°C 82% 29.62 in
(1003 mb)
SSE 11.5 mph
(SSE 19 kph)
0.03 in
(0.76 mm)
10SM
10:53
Overcast
Light Rain
57°F / 14°C 50°F / 10°C 77% 29.59 in
(1002 mb)
SSE 15 mph
(SSE 24 kph)
0.01 in
(0.25 mm)
10SM
09:53
Overcast
55°F / 13°C 50°F / 10°C 82% 29.56 in
(1001 mb)
SE 16.1 mph
(SE 26 kph)
- 10SM
08:53
Overcast
55°F / 13°C 50°F / 10°C 82% 29.53 in
(1000 mb)
SE 11.5 mph
(SE 19 kph)
0.00 in
(0.00 mm)
10SM
08:30
Overcast
Light Rain
55°F / 13°C 50°F / 10°C 82% 29.53 in
(1000 mb)
E 4.6 mph
(E 7 kph)
0.00 in
(0.00 mm)
10SM
07:53
Overcast
52°F / 11°C 50°F / 10°C 94% 29.53 in
(1000 mb)
NE 4.6 mph
(NE 7 kph)
0.00 in
(0.00 mm)
10SM
06:53
Overcast
52°F / 11°C 48°F / 9°C 88% 29.5 in
(999 mb)
N 3.5 mph
(N 6 kph)
- 10SM
05:53
Overcast
52°F / 11°C 48°F / 9°C 88% 29.5 in
(999 mb)
NE 3.5 mph
(NE 6 kph)
- 10SM
04:53
Overcast
52°F / 11°C 50°F / 10°C 94% 29.5 in
(999 mb)
NNE 5.8 mph
(NNE 9 kph)
0.00 in
(0.00 mm)
10SM
04:37
Overcast
52°F / 11°C 50°F / 10°C 94% 29.5 in
(999 mb)
NNE 4.6 mph
(NNE 7 kph)
0.00 in
(0.00 mm)
10SM
04:24
Overcast
52°F / 11°C 50°F / 10°C 94% 29.5 in
(999 mb)
NE 5.8 mph
(NE 9 kph)
0.00 in
(0.00 mm)
10SM
03:53
Overcast
Light Rain
52°F / 11°C 50°F / 10°C 94% 29.5 in
(999 mb)
NNE 4.6 mph
(NNE 7 kph)
0.01 in
(0.25 mm)
10SM
03:11
Overcast
Light Rain
52°F / 11°C 50°F / 10°C 94% 29.53 in
(1000 mb)
Calm 0.00 in
(0.00 mm)
10SM
02:53
Overcast
Light Rain
52°F / 11°C 50°F / 10°C 94% 29.5 in
(999 mb)
Calm 0.07 in
(1.78 mm)
7SM
02:46
Overcast
Light Rain
52°F / 11°C 50°F / 10°C 94% 29.5 in
(999 mb)
Calm 0.06 in
(1.52 mm)
4SM
02:25
Overcast
Light Rain
52°F / 11°C 48°F / 9°C 88% 29.53 in
(1000 mb)
Calm 0.03 in
(0.76 mm)
6SM
01:53
Overcast
Light Rain
52°F / 11°C 48°F / 9°C 88% 29.5 in
(999 mb)
Calm 0.03 in
(0.76 mm)
6SM
00:53
Overcast
52°F / 11°C 48°F / 9°C 88% 29.5 in
(999 mb)
Calm - 10SM
Time Weather Temperature Dewpoint Humidity Pressure Winds Precip Visibility


Weather for websites

WeatherForYou.com, LLC is not responsible for any damages or problems caused by this service. Current weather conditions are obtained from the closest station including government and personal stations which may have varying degrees of accuracy. Weather forecasts are derived from the NOAA NDFD. Like all things, this site belongs to Jesus Christ... He just trusts me to maintain it. If you have any questions or comments email webmaster@weatherforyou.com

Copyright © 2014, WeatherForYou.com LLC. All rights reserved.